www.pogodaiklimat.ru
ПОГОДА в Банджармасине
Время
(UTC), дата
18 7.11
21 7.11
00 8.11
03 8.11
06 8.11
09 8.11
12 8.11
15 8.11
18 8.11
21 8.11
00 9.11
03 9.11
06 9.11
09 9.11
12 9.11
15 9.11
18 9.11
21 9.11
00 10.11
03 10.11
06 10.11
09 10.11
12 10.11
15 10.11
18 10.11
21 10.11
00 11.11
03 11.11
06 11.11
09 11.11
12 11.11
15 11.11
18 11.11
21 11.11
00 12.11
03 12.11
06 12.11
09 12.11
12 12.11
15 12.11
18 12.11
21 12.11
00 13.11
03 13.11
06 13.11
09 13.11
12 13.11
15 13.11
18 13.11
21 13.11
00 14.11
03 14.11
06 14.11
09 14.11
12 14.11
Ветер
(напр.,м/с)
Видим. Явления Облачность Т
(С)
Тd
(С)
f
(%)
Тe
(С)
Тes
(С)
Комфортность P
(гПа)
Po
(гПа)
Тmin
(С)
Tmax
(С)
R
(мм)
R24
(мм)
S
(см)
штиль 0 3000 м дым 4/0
[As trans Ci fib]
+25.8 +22.4 82 +34 +34 очень
душно
1009.4 1007.2
штиль 0 4000 м дым {туман} 4/0
[As trans Ci fib]
+24.8 +22.6 88 +33 +33 очень
душно
1009.6 1007.4
В 2 2000 м дым {туман} ?/? +27.4 +23.5 79 +37 +37 очень
душно
1012.0 1009.8 +24.4
В 2 10 км 6/1 600 м
[Sc As trans Ci fib]
+34.2 +21.8 48 +42 +54 опасность
перегрева
1011.0 1008.8
З 6 10 км 8/5 600 м
[Cu Sc As trans Ci fib]
+34.1 +24.5 57 +47 +49 опасность
перегрева
1007.4 1005.3
СЗ 5 5000 м гроза, ливневой дождь 9/6 480 м
[Cb cap As trans Ci fib]
+28.0 +25.9 88 +42 +42 опасность
перегрева
1007.9 1005.8 3
С 1 6000 м {гроза, дождь} 8/5 540 м
[Cu Sc As trans Ci fib]
+27.7 +25.5 88 +41 +41 опасность
перегрева
1010.2 1008.0 +35.6 0.0
штиль 0 5000 м 6/3 540 м
[Cu med, cong As trans Ci fib]
+27.0 +24.8 88 +39 +39 очень
душно
1011.0 1008.8
СВ 1 2000 м дымка 6/3 540 м
[Cu med, cong As trans Ci fib]
+25.7 +24.5 93 +36 +36 очень
душно
1011.5 1008.3
штиль 0 2000 м дымка 6/3 540 м
[Cu med, cong As trans Ci fib]
+25.5 +24.4 94 +36 +36 очень
душно
1010.0 1007.9
З 2 4000 м дымка 4/0
[Ac trans Ci fib]
+28.0 +25.0 84 +40 +43 очень
душно
1012.4 1010.2 +25.2 3
Ю 4 10 км 6/4 540 м
[Cu Sc As trans Ci fib]
+33.0 +22.5 54 +42 +48 опасность
перегрева
1011.3 1009.2
З 3 10 км 8/6 480 м
[Cb cap As trans Ci fib]
+31.6 +25.1 69 +46 +50 опасность
перегрева
1008.4 1006.2
Ю 4 10 км 6/1 600 м
[Sc As trans Ci fib]
+33.4 +22.0 51 +42 +43 опасность
перегрева
1007.6 1005.4
Ю 3 7000 м 5/1 600 м
[Sc As trans Ci fib]
+29.2 +24.0 74 +41 +41 опасность
перегрева
1010.8 1008.6 +34.6
СВ 3 3000 м дым {туман} ?/? +25.4 +22.6 85 +33 +33 очень
душно
1011.5 1009.4
СВ 2 3000 м дым {туман} ?/? +23.6 +22.2 92 +31 +31 очень
душно
1011.5 1009.4
С 2 800 м дым {туман} ?/? +23.4 +22.6 95 +32 +32 очень
душно
1010.0 1007.9
СВ 2 4000 м дымка {туман} 9/3 450 м
[Sc As trans Ci fib]
+25.4 +23.2 88 +34 +36 очень
душно
1012.4 1010.2 +23.4
ЮВ 3 7000 м 8/3 570 м
[Cu Sc As trans Ci fib]
+32.2 +24.0 62 +44 +51 опасность
перегрева
1010.9 1008.8
ЮЗ 2 7000 м 9/6 540 м
[Cu Sc As trans Ci fib]
+32.6 +24.2 61 +45 +49 опасность
перегрева
1007.6 1005.5
ЮЗ 4 4000 м мгла {гроза, дождь} 6/4 600 м
[Cu Sc As trans Ci fib]
+29.7 +25.5 78 +44 +44 опасность
перегрева
1007.0 1004.9 3
ЮЗ 2 9000 м {гроза, дождь} 6/3 600 м
[Sc As trans Ci fib]
+28.6 +24.2 77 +40 +40 очень
душно
1009.2 1007.0 +33.4 3
штиль 0 7000 м 6/3 600 м
[Sc As trans Ci fib]
+27.4 +24.4 84 +39 +39 очень
душно
1009.9 1007.8
штиль 0 7000 м 6/3 600 м
[Sc As trans Ci fib]
+26.0 +23.8 88 +36 +36 очень
душно
1008.2 1006.1
штиль 0 1000 м дымка 6/3 600 м
[Sc As trans Ci fib]
+25.2 +24.4 95 +35 +35 очень
душно
1008.4 1006.2
СВ 1 6000 м {туман} 3/1 600 м
[Cu med, cong As trans Ci fib]
+26.8 +25.0 90 +39 +42 очень
душно
1010.4 1008.2 +24.6 3
В 3 10 км 6/5 600 м
[Cu Sc As trans Ci fib]
+33.7 +23.8 56 +45 +52 опасность
перегрева
1009.6 1007.5
Ю 2 10 км {гроза} 8/6 450 м
[Cb cap As trans Ci fib]
+32.1 +23.5 60 +43 +48 опасность
перегрева
1007.3 1005.1
Ю 3 10 км 8/4 600 м
[Cu Sc As trans Ci fib]
+31.8 +23.3 61 +43 +44 опасность
перегрева
1006.6 1004.4
Ю 2 10 км {гроза} 8/4 600 м
[Sc As trans Ci fib]
+29.0 +24.1 75 +40 +40 очень
душно
1008.8 1006.6 +34.2
З 2 7000 м 6/0
[As trans Ci fib]
+27.2 +23.9 82 +37 +37 очень
душно
1009.4 1007.3
штиль 0 5000 м мгла 5/0
[As trans Ci fib]
+26.0 +24.1 89 +36 +36 очень
душно
1008.4 1006.2
С 3 4000 м дымка 4/0
[As trans Ci fib]
+25.2 +23.8 92 +34 +34 очень
душно
1008.9 1006.7
С 1 2500 м дымка 8/3 600 м
[Sc As trans Ci fib]
+26.6 +24.4 88 +37 +39 очень
душно
1011.3 1009.1 +24.8
С 3 8000 м 9/5 570 м
[Cu Sc As trans Ci fib]
+31.6 +25.1 69 +46 +50 опасность
перегрева
1011.2 1009.0
Ю 2 10 км гроза без осадков 9/5 450 м
[Cb cap As trans Ci fib]
+28.6 +21.9 67 +37 +42 очень
душно
1008.5 1006.3
Ю 1 10 км в посл. час гроза {дождь} 9/1 450 м
[Sc As trans Ci fib]
+25.6 +24.2 92 +35 +37 очень
душно
1008.5 1006.3 13
СВ 3 4000 м дымка {гроза, дождь} 6/0 <50 м
[As trans Ci fib]
+25.2 +24.4 95 +35 +35 очень
душно
1010.0 1007.8 +33.8 0.0
В 4 5000 м дымка 5/0
[As trans Ci fib]
+24.9 +24.5 98 +35 +35 очень
душно
1010.9 1008.7
штиль 0 2000 м дымка 5/0
[As trans Ci fib]
+24.4 +23.8 96 +33 +33 очень
душно
1011.0 1008.8
ЮВ 2 7000 м 5/0
[As trans Ci fib]
+24.0 +23.4 96 +32 +32 очень
душно
1010.8 1008.6
В 3 4000 м дымка 4/0 <50 м
[Ac trans Ci fib]
+26.0 +24.1 89 +36 +38 очень
душно
1012.6 1010.4 +24.2 13
ЮВ 3 10 км мгла 6/3 450 м
[Sc As trans Ci fib]
+32.8 +23.5 58 +44 +52 опасность
перегрева
1011.5 1009.4
В 3 10 км 8/4 450 м
[Cu Sc As trans Ci fib]
+35.8 +21.3 43 +43 +49 опасность
перегрева
1007.8 1005.6
ЮЗ 3 10 км слаб. дождь {гроза} 9/5 480 м
[Cu Sc As trans Ci fib]
+31.0 +24.2 67 +43 +44 опасность
перегрева
1007.4 1005.3 0.1
З 1 8000 м гроза, ливневой дождь 10/8 450 м
[Cb cap As op]
+25.2 +23.4 90 +34 +34 очень
душно
1010.1 1007.9 +36.1 2
ЮВ 1 9000 м в посл. час гроза {дождь} 10/6 480 м
[Cu med, cong As op]
+25.4 +23.9 91 +35 +35 очень
душно
1011.3 1009.2 0.4
штиль 0 9000 м 8/5 540 м
[Cu Sc As trans]
+25.4 +23.9 91 +35 +35 очень
душно
1009.7 1007.6 0.4
штиль 0 5000 м дымка 5/4 540 м
[Cu Sc As trans Ci fib]
+24.8 +24.0 95 +34 +34 очень
душно
1010.2 1008.0
С 2 8000 м 5/3 540 м
[Sc As trans Ci fib]
+26.5 +24.2 87 +37 +39 очень
душно
1012.1 1009.9 +24.6 2
СВ 2 10 км 6/4 540 м
[Sc As trans Ci fib]
+31.7 +24.8 67 +45 +55 опасность
перегрева
1012.2 1010.1
СЗ 4 7000 м гроза без осадков 8/8 450 м
[Cb cap As op Ci fib]
+25.3 +23.8 91 +34 +37 очень
душно
1009.1 1007.0 19
В 2 8000 м {гроза} 8/5 570 м
[Sc As trans Ci fib]
+28.0 +24.7 82 +40 +41 очень
душно
1007.6 1005.5
ЮВ 1 6000 м {дождь} 8/3 540 м
[Sc As trans Ci fib]
+26.4 +25.3 94 +38 +38 очень
душно
1009.3 1007.2 +32.6
Местоположение метеостанции Банджармасин (Индонезия): широта -3.43 долгота 114.75 высота над уровнем моря 20 м.
В архиве по умолчанию представлена погода в Банджармасине за последнюю неделю. Архивные данные за месяц целиком и за предыдущие месяцы, начиная с января 2011 года, Вы можете получить, выбрав интересующий диапазон дат из раскрывающегося списка и нажав кнопку "Найти!".
*Определитесь, кто Вы:
Внимание! Время в таблицах - всемирное. Для получения местного времени необходимо прибавить поправку, которая равна 8 ч.
Смотрите также архив погоды в соседних городах и на ближайших метеорологических станциях:
Партнеры нашего сайта:      
Пояснения к столбцам:
  • Ветер - указаны скорость ветра в м/с - средняя за 10 мин, порывы в срок и между сроками (в фигурных скобках) и направление, откуда дует ветер: С - северный,
  • СВ - северо-восточный, В - восточный, ЮВ - юго-восточный, Ю - южный, ЮЗ - юго-западный, З - западный, СЗ - северо-западный.
  • Видимость - горизонтальная дальность видимости в метрах или километрах. При видимости от 1 до 10 км при отсутствии осадков обычно наблюдается дымка, при ухудшении видимости до 1 км и менее - туман. В сухую погоду видимость может ухудшаться дымом, пылью или мглою.
  • Явления - указаны атмосферные явления, наблюдавшиеся в срок или в последний час перед сроком; фигурными скобками обозначены явления, наблюдавшиеся между сроками (за 1-3 часа до срока); квадратными скобками обозначены град или гололедные отложения с указанием их диаметра в мм.
  • Облачность - указаны через наклонную черту общая и нижняя облачность в баллах и высота нижней границы облаков в метрах; квадратными скобками обозначены формы облаков: Ci - перистые, Cs - перисто-слоистые, Cc - перисто-кучевые, Ac - высококучевые, As - высокослоистые, Sc - слоисто-кучевые, Ns - слоисто-дождевые, Cu - кучевые, Cb - кучево-дождевые. Подробнее классификацию облаков см. в Атласе облаков (PDF).
  • T - Температура воздуха - температура, измеренная на высоте 2 м над землей.
  • Td - Температура точки росы - температура, при понижении до которой содержащийся в воздухе водяной пар достигнет насыщения.
  • f - Относительная влажность воздуха - влажноcть воздуха, измеренная на высоте 2 м над землей.
  • Te - Эффективная температура - температура, которую ощущает одетый по сезону человек в тени. Характеристика душности погоды. При расчете учитывается влияние влажности воздуха и скорости ветра на теплоощущения человека.
  • Tes - Эффективная температура на солнце - температура, которую ощущает человек, с поправкой на солнечный нагрев. Характеристика знойности погоды. Зависит от высоты солнца над горизонтом, облачности и скорости ветра. Ночью, в пасмурную погоду, а также при ветре 12 м/с и более поправка равна нулю.
  • P - Атмосферное давление - приведенное к уровню моря атмосферное давление.
  • Po - Атмосферное давление - измеренное на уровне метеостанции атмосферное давление.
  • Tmin - Минимальная температура - минимум температуры воздуха на высоте 2 м над землей.
  • Tmax - Максимальная температура - максимум температуры воздуха на высоте 2 м над землей.
  • R - Количество осадков - Количество выпавших осадков за период времени, мм. При наведении курсора мыши на число - период времени, за который выпало указанное количество осадков.
  • R24 - Количество осадков - Количество выпавших осадков за 24 часа, мм.
  • S - Снежный покров - Высота снежного покрова, см. При наведении курсора мыши на число - состояние снежного покрова и степень покрытия местности в баллах.